User: anonymous   Login
Location: Unspecified
(0.0000°N, 0.0000°E)
Time: 15:42:05
(UTC+00:00)
Language:

S-NET C - Orbit

View from above orbital plane
View from above orbital plane
View from above satellite
View from above satellite

Ground track
Ground track

The orbit data is extracted from the following two-line orbital elements,

1 43189U 18014K   22279.64197564  .00003608  00000-0  30804-3 0  9998
2 43189  97.6471 183.1495 0009149 290.4124  69.6115 14.98281239254115
Epoch (UTC): 06 October 2022 15:24:26
Eccentricity: 0.0009149
inclination: 97.6471°
perigee height: 566 km
apogee height: 578 km
right ascension of ascending node: 183.1495°
argument of perigee: 290.4124°
revolutions per day: 14.98281239
mean anomaly at epoch: 69.6115°
orbit number at epoch: 25411

The dashed part of the orbit path shows where the satellite is in the earth's shadow,  

DLR